sat.trackr.live / text

‹ back to catalog

STARLINK-35272

NORAD 65899 · 2025-224T

PAYLOAD ACTIVE UNKNOWN

§ Identity

Operator
Country
US
Launch date
2025-10-07
Launch site
AFETR
Launch vehicle
Mass (kg)
RCS (m²)

Purposes: comms

External: N2YO · Heavens-Above · Gunter

§ Orbital elements

Epoch: 2026-05-25T01:30:33.357312Z

Period
93.85 min
Inclination
53.1596°
Eccentricity
0.0000594
Mean motion
15.34410571 rev/d
Perigee alt
462.3 km
Apogee alt
463.1 km
Semi-major
6,840.8 km
B*
9.7897e-4
RAAN
15.4414°
Arg perigee
49.8212°
Mean anomaly
310.2842°
Rev number
3,657

§ Raw data

STARLINK-352721 65899U 25224T   26145.06288608  .00032856  00000+0  97897-3 0  99942 65899  53.1596  15.4414 0000594  49.8212 310.2842 15.34410571 36573

JSON: /api/v1/satellites/65899 · /tle

For live sub-satellite position, see the globe view (requires WebGL).

§ Visibility from observer

Set your observer location to see the next 7 days of passes ≥ 10°. The values pass through the URL so the page stays shareable.

No JS? Fill the form by hand. The geolocation button needs JavaScript.